TimeAKST,TemperatureF,Dew PointF,Humidity,Sea Level PressureIn,VisibilityMPH,Wind Direction,Wind SpeedMPH,Gust SpeedMPH,PrecipitationIn,Events,Conditions,WindDirDegrees,DateUTC
12:02 AM,1.0,-5.1,75,30.14,5.0,Calm,Calm,-,N/A,,Mostly Cloudy,0,2014-01-30 09:02:00
12:10 AM,1.0,-2.9,83,30.14,5.0,Calm,Calm,-,N/A,,Mostly Cloudy,0,2014-01-30 09:10:00
12:31 AM,1.0,-2.9,83,30.15,3.0,Calm,Calm,-,N/A,,Mostly Cloudy,0,2014-01-30 09:31:00
12:53 AM,3.0,-0.9,84,30.19,1.5,Calm,Calm,-,N/A,,Mostly Cloudy,0,2014-01-30 09:53:00
1:29 AM,-0.9,-6.0,79,30.16,2.5,West,3.5,-,N/A,,Mostly Cloudy,270,2014-01-30 10:29:00
1:53 AM,1.0,-4.0,79,30.20,1.0,Calm,Calm,-,N/A,,Mostly Cloudy,0,2014-01-30 10:53:00
2:01 AM,1.0,-2.9,83,30.16,1.0,Calm,Calm,-,N/A,,Mostly Cloudy,0,2014-01-30 11:01:00
2:19 AM,1.0,-2.9,83,30.16,0.5,Calm,Calm,-,N/A,Fog,Light Freezing Fog,0,2014-01-30 11:19:00
3:53 AM,1.9,-2.0,83,30.22,0.2,Calm,Calm,-,N/A,Fog,Light Freezing Fog,0,2014-01-30 12:53:00
4:53 AM,1.9,-2.0,83,30.23,0.2,Calm,Calm,-,N/A,Fog,Light Freezing Fog,0,2014-01-30 13:53:00
5:53 AM,1.0,-2.0,87,30.23,0.2,Calm,Calm,-,N/A,Fog,Light Freezing Fog,0,2014-01-30 14:53:00
6:53 AM,1.0,-2.9,83,30.24,0.2,Calm,Calm,-,N/A,Fog,Light Freezing Fog,0,2014-01-30 15:53:00
7:15 AM,-0.0,-5.1,79,30.19,0.2,Calm,Calm,-,N/A,Fog,Light Freezing Fog,0,2014-01-30 16:15:00
7:35 AM,-0.0,-5.1,79,30.20,0.2,Calm,Calm,-,N/A,Fog,Light Freezing Fog,0,2014-01-30 16:35:00
7:53 AM,-0.0,-5.1,79,30.25,0.2,Calm,Calm,-,N/A,Fog,Light Freezing Fog,0,2014-01-30 16:53:00
8:15 AM,1.9,-2.0,83,30.20,1.0,NNW,3.5,-,N/A,,Mist,340,2014-01-30 17:15:00
8:53 AM,3.9,-2.9,73,30.25,0.5,NNE,3.5,-,N/A,,Mist,20,2014-01-30 17:53:00
9:13 AM,3.9,-0.9,80,30.21,0.2,NE,4.6,-,N/A,Fog,Light Freezing Fog,40,2014-01-30 18:13:00
9:43 AM,3.0,-2.0,80,30.21,0.5,NE,3.5,-,N/A,Fog,Light Freezing Fog,50,2014-01-30 18:43:00
9:53 AM,3.0,-2.9,76,30.26,0.5,ENE,3.5,-,N/A,,Mostly Cloudy,60,2014-01-30 18:53:00
9:59 AM,3.0,-2.9,76,30.21,6.0,Calm,Calm,-,N/A,,Mostly Cloudy,0,2014-01-30 18:59:00
10:26 AM,1.0,-4.0,79,30.22,1.0,Calm,Calm,-,N/A,,Mostly Cloudy,0,2014-01-30 19:26:00
10:53 AM,1.9,-2.9,80,30.27,1.0,Calm,Calm,-,N/A,,Mostly Cloudy,0,2014-01-30 19:53:00
11:53 AM,3.0,-0.9,84,30.28,1.0,Calm,Calm,-,N/A,,Mostly Cloudy,0,2014-01-30 20:53:00
12:53 PM,3.9,-2.0,76,30.27,1.0,Calm,Calm,-,N/A,,Mostly Cloudy,0,2014-01-30 21:53:00
1:00 PM,3.9,-2.0,76,30.23,1.0,Calm,Calm,-,N/A,,Mostly Cloudy,0,2014-01-30 22:00:00
1:16 PM,5.0,-0.0,80,30.23,10.0,Calm,Calm,-,N/A,Fog,Patches of Fog,0,2014-01-30 22:16:00
1:53 PM,5.0,-0.0,80,30.28,6.0,Calm,Calm,-,N/A,,Scattered Clouds,0,2014-01-30 22:53:00
2:53 PM,7.0,1.9,80,30.27,10.0,Calm,Calm,-,N/A,Fog,Patches of Fog,0,2014-01-30 23:53:00
3:53 PM,5.0,-0.9,76,30.27,10.0,Calm,Calm,-,N/A,,Partly Cloudy,0,2014-01-31 00:53:00
4:35 PM,1.9,-4.0,76,30.23,7.0,Calm,Calm,-,N/A,Fog,Patches of Fog,0,2014-01-31 01:35:00
4:53 PM,3.0,-2.0,80,30.28,7.0,Calm,Calm,-,N/A,Fog,Patches of Fog,0,2014-01-31 01:53:00
5:53 PM,-0.0,-6.0,76,30.28,6.0,Calm,Calm,-,N/A,,Partly Cloudy,0,2014-01-31 02:53:00
6:53 PM,-2.0,-9.0,72,30.28,6.0,Calm,Calm,-,N/A,,Partly Cloudy,0,2014-01-31 03:53:00
7:53 PM,-2.0,-9.0,72,30.30,6.0,Calm,Calm,-,N/A,,Partly Cloudy,0,2014-01-31 04:53:00
8:53 PM,-2.9,-9.0,75,30.29,7.0,Calm,Calm,-,N/A,,Partly Cloudy,0,2014-01-31 05:53:00
9:53 PM,-5.1,-11.9,72,30.30,7.0,Calm,Calm,-,N/A,,Partly Cloudy,0,2014-01-31 06:53:00
10:53 PM,-4.0,-11.0,72,30.30,7.0,Calm,Calm,-,N/A,,Partly Cloudy,0,2014-01-31 07:53:00
11:53 PM,-5.1,-11.0,76,30.30,7.0,Calm,Calm,-,N/A,,Partly Cloudy,0,2014-01-31 08:53:00